EN

Hourly Weather Trzciniec

Today, 21 April, Wednesday

Time Temperature Precipitation Wind Pressure Humidity
00:00 +7°C° 0 mm 2 mps 733 mmHg 77%
01:00 +7°C° 0 mm 2 mps 733 mmHg 81%
02:00 +6°C° 0.1 mm 2 mps 733 mmHg 83%
03:00 +6°C° 0.1 mm 2 mps 733 mmHg 86%
04:00 +6°C° 0.1 mm 2 mps 733 mmHg 88%
05:00 +7°C° 0 mm 3 mps 733 mmHg 86%
06:00 +8°C° 0 mm 3 mps 733 mmHg 83%
07:00 +8°C° 0 mm 4 mps 733 mmHg 80%
08:00 +10°C° 0.3 mm 4 mps 733 mmHg 74%
09:00 +10°C° 0.3 mm 5 mps 733 mmHg 69%
10:00 +12°C° 0.3 mm 5 mps 733 mmHg 63%
11:00 +13°C° 0.4 mm 5 mps 733 mmHg 60%
12:00 +14°C° 0.4 mm 5 mps 733 mmHg 56%
13:00 +14°C° 0.4 mm 5 mps 733 mmHg 53%
14:00 +14°C° 0.1 mm 5 mps 732 mmHg 52%
15:00 +14°C° 0.1 mm 5 mps 732 mmHg 51%
16:00 +14°C° 0.1 mm 4 mps 732 mmHg 50%
17:00 +13°C° 0 mm 4 mps 732 mmHg 56%
18:00 +11°C° 0 mm 3 mps 732 mmHg 62%
19:00 +10°C° 0 mm 2 mps 732 mmHg 68%
20:00 +9°C° 0 mm 2 mps 732 mmHg 70%
21:00 +9°C° 0 mm 2 mps 733 mmHg 71%
22:00 +9°C° 0 mm 2 mps 733 mmHg 73%
23:00 +8°C° 0 mm 2 mps 733 mmHg 75%

Tomorrow, 22 April, Thursday

Time Temperature Precipitation Wind Pressure Humidity
00:00 +8°C° 0 mm 2 mps 733 mmHg 78%
01:00 +8°C° 0 mm 3 mps 733 mmHg 80%
02:00 +7°C° 0 mm 3 mps 733 mmHg 81%
03:00 +7°C° 0 mm 3 mps 733 mmHg 82%
04:00 +5°C° 0 mm 3 mps 733 mmHg 83%
05:00 +5°C° 0 mm 3 mps 733 mmHg 84%
06:00 +5°C° 0 mm 4 mps 734 mmHg 86%
07:00 +5°C° 0 mm 4 mps 734 mmHg 87%
08:00 +4°C° 0.4 mm 4 mps 735 mmHg 87%
09:00 +3°C° 0.4 mm 4 mps 735 mmHg 86%
10:00 +1°C° 0.4 mm 4 mps 735 mmHg 86%
11:00 +3°C° 0.1 mm 5 mps 735 mmHg 74%
12:00 +5°C° 0.1 mm 5 mps 735 mmHg 62%
13:00 +7°C° 0.1 mm 6 mps 735 mmHg 50%
14:00 +7°C° 0 mm 6 mps 735 mmHg 48%
15:00 +7°C° 0 mm 6 mps 735 mmHg 46%
16:00 +8°C° 0 mm 6 mps 735 mmHg 45%
17:00 +6°C° 0 mm 5 mps 735 mmHg 50%
18:00 +5°C° 0 mm 4 mps 736 mmHg 56%
19:00 +4°C° 0 mm 2 mps 736 mmHg 62%
20:00 +4°C° 0 mm 2 mps 736 mmHg 66%
21:00 +2°C° 0 mm 3 mps 736 mmHg 70%
22:00 +1°C° 0 mm 3 mps 736 mmHg 73%
23:00 +1°C° 0 mm 3 mps 736 mmHg 77%

Day after tomorrow, 23 April, Friday

Time Temperature Precipitation Wind Pressure Humidity
00:00 +1°C° 0 mm 3 mps 737 mmHg 81%
01:00 0°C° 0 mm 4 mps 737 mmHg 85%
02:00 0°C° 0 mm 3 mps 737 mmHg 87%
03:00 0°C° 0 mm 3 mps 737 mmHg 90%
04:00 -1°C° 0 mm 3 mps 737 mmHg 92%
05:00 -1°C° 0 mm 4 mps 737 mmHg 87%
06:00 +1°C° 0 mm 4 mps 737 mmHg 81%
07:00 +2°C° 0 mm 5 mps 737 mmHg 75%
08:00 +2°C° 0.4 mm 6 mps 737 mmHg 75%
09:00 +2°C° 0.4 mm 6 mps 737 mmHg 74%
10:00 +3°C° 0.4 mm 7 mps 738 mmHg 73%
11:00 +3°C° 0.4 mm 7 mps 738 mmHg 70%
12:00 +3°C° 0.4 mm 7 mps 738 mmHg 67%
13:00 +4°C° 0.4 mm 7 mps 738 mmHg 64%
14:00 +4°C° 0.1 mm 6 mps 738 mmHg 61%
15:00 +4°C° 0.1 mm 6 mps 738 mmHg 57%
16:00 +5°C° 0.1 mm 6 mps 739 mmHg 54%
17:00 +5°C° 0.1 mm 5 mps 739 mmHg 60%
18:00 +3°C° 0.1 mm 4 mps 739 mmHg 67%
19:00 +2°C° 0.1 mm 3 mps 740 mmHg 74%
20:00 +2°C° 0 mm 3 mps 740 mmHg 75%
21:00 +1°C° 0 mm 4 mps 740 mmHg 76%
22:00 +1°C° 0 mm 4 mps 740 mmHg 78%
23:00 0°C° 0 mm 4 mps 740 mmHg 76%

24 April, Saturday

Time Temperature Precipitation Wind Pressure Humidity
00:00 -1°C° 0 mm 4 mps 740 mmHg 74%
01:00 -1°C° 0 mm 4 mps 740 mmHg 72%
02:00 -2°C° 0 mm 4 mps 740 mmHg 72%
03:00 -2°C° 0 mm 4 mps 740 mmHg 71%
04:00 -3°C° 0 mm 4 mps 740 mmHg 71%
05:00 -2°C° 0 mm 4 mps 741 mmHg 67%
06:00 0°C° 0 mm 5 mps 741 mmHg 63%
07:00 +1°C° 0 mm 5 mps 741 mmHg 59%
08:00 +2°C° 0 mm 5 mps 741 mmHg 53%
09:00 +5°C° 0 mm 5 mps 741 mmHg 46%
10:00 +6°C° 0 mm 5 mps 740 mmHg 40%
11:00 +7°C° 0 mm 5 mps 740 mmHg 39%
12:00 +7°C° 0 mm 5 mps 740 mmHg 37%
13:00 +8°C° 0 mm 5 mps 739 mmHg 36%
14:00 +7°C° 0.1 mm 5 mps 739 mmHg 45%
15:00 +7°C° 0.1 mm 5 mps 739 mmHg 54%
16:00 +5°C° 0.1 mm 6 mps 738 mmHg 63%
17:00 +5°C° 0.2 mm 5 mps 738 mmHg 69%
18:00 +3°C° 0.2 mm 5 mps 738 mmHg 74%
19:00 +3°C° 0.2 mm 4 mps 738 mmHg 80%
20:00 +1°C° 0.1 mm 5 mps 738 mmHg 84%
21:00 +1°C° 0.1 mm 5 mps 739 mmHg 88%
22:00 0°C° 0.1 mm 5 mps 739 mmHg 92%
23:00 -1°C° 0 mm 5 mps 739 mmHg 91%

25 April, Sunday

Time Temperature Precipitation Wind Pressure Humidity
00:00 -2°C° 0 mm 4 mps 739 mmHg 91%
01:00 -1°C° 0 mm 3 mps 739 mmHg 91%
02:00 -2°C° 0 mm 3 mps 739 mmHg 89%
03:00 -2°C° 0 mm 3 mps 739 mmHg 88%
04:00 -4°C° 0 mm 3 mps 739 mmHg 86%
05:00 -3°C° 0 mm 4 mps 740 mmHg 79%
06:00 -2°C° 0 mm 4 mps 740 mmHg 72%
07:00 0°C° 0 mm 5 mps 740 mmHg 65%
08:00 0°C° 0 mm 5 mps 740 mmHg 61%
09:00 +1°C° 0 mm 6 mps 740 mmHg 57%
10:00 +2°C° 0 mm 6 mps 740 mmHg 53%
11:00 +3°C° 0.1 mm 6 mps 740 mmHg 52%
12:00 +3°C° 0.1 mm 5 mps 740 mmHg 52%
13:00 +5°C° 0.1 mm 5 mps 739 mmHg 51%
14:00 +5°C° 0.3 mm 5 mps 739 mmHg 54%
15:00 +5°C° 0.3 mm 5 mps 739 mmHg 57%
16:00 +5°C° 0.3 mm 5 mps 739 mmHg 60%
17:00 +3°C° 0.3 mm 5 mps 738 mmHg 67%
18:00 +1°C° 0.3 mm 4 mps 738 mmHg 74%
19:00 0°C° 0.3 mm 4 mps 738 mmHg 81%
20:00 0°C° 0.1 mm 4 mps 738 mmHg 82%
21:00 -1°C° 0.1 mm 4 mps 738 mmHg 83%
22:00 -1°C° 0.1 mm 4 mps 738 mmHg 84%
23:00 -1°C° 0.1 mm 4 mps 738 mmHg 84%

26 April, Monday

Time Temperature Precipitation Wind Pressure Humidity
00:00 -1°C° 0.1 mm 4 mps 738 mmHg 84%
01:00 0°C° 0.1 mm 3 mps 738 mmHg 84%
02:00 -2°C° 0 mm 4 mps 738 mmHg 83%
03:00 -2°C° 0 mm 4 mps 738 mmHg 83%
04:00 -3°C° 0 mm 4 mps 738 mmHg 83%
05:00 -2°C° 0.1 mm 4 mps 738 mmHg 82%
06:00 -1°C° 0.1 mm 5 mps 738 mmHg 81%
07:00 -2°C° 0.1 mm 6 mps 738 mmHg 80%
08:00 -1°C° 0.1 mm 6 mps 738 mmHg 78%
09:00 +1°C° 0.1 mm 6 mps 738 mmHg 76%
10:00 +1°C° 0.1 mm 6 mps 739 mmHg 74%
11:00 +2°C° 0.1 mm 5 mps 739 mmHg 72%
12:00 +2°C° 0.1 mm 5 mps 739 mmHg 70%
13:00 +2°C° 0.1 mm 5 mps 739 mmHg 68%
14:00 +2°C° 0 mm 5 mps 739 mmHg 68%
15:00 +3°C° 0 mm 4 mps 739 mmHg 68%
16:00 +3°C° 0 mm 4 mps 739 mmHg 68%
17:00 +3°C° 0 mm 3 mps 739 mmHg 71%
18:00 +2°C° 0 mm 3 mps 739 mmHg 74%
19:00 +3°C° 0 mm 2 mps 739 mmHg 77%
20:00 +3°C° 0 mm 2 mps 739 mmHg 78%
21:00 +3°C° 0 mm 2 mps 738 mmHg 79%
22:00 +3°C° 0 mm 2 mps 738 mmHg 81%
23:00 +3°C° 0 mm 2 mps 738 mmHg 81%
Show more

We Need Your Consent

Meteoprog and our Service Providers may store and access personal data such as cookies, device identifiers or other similar technologies on your device and process such data to personalise content and ads, as well as provide social media features and to analyse the traffic.

  • Store and/or access information on your device

    Cookies, device identifiers or other information can be stored or accessed on your device for the purposes indicated above.

  • Personalised ads and content, ad and content measurement, audience insights, and products development

    Ads and content can be personalised based on a profile. More data can be added to better personalise ads and content. Ad and content performance can be measured. Insights about the audience who saw the ads and content can be derived. Such data can be used to develop or improve user’s experience, systems and software.

By clicking ‘I Agree’ you will allow the use of indicated cookies, device identifiers, web beacons or other similar technologies. Your settings can be changed in the browser on your device.

For certain purposes, legitimate interests may be relied on, rather than consent. You can read more about this in our Privacy and Cookie Policy.